Date String (YYYY-MM-DD hh:mm:ss) UTC,Instrument flags,absolute air pressure of the measurement (hPa),sample flow rate (lpm),inlet stack bypass flow (lpm),air temperature of the measurement (°C),ambient temperature measured by the external sensor (°C),aerosol sample conditioner tube jacket temperature (°C),OPC LED temperature (°C),internal box temperature (°C),relative humidity of the measurement (%),span deviation,mass concentration of particles derived from Lorenz-Mie calculation of OPC scattering (μg/m³),mass concentration of particles derived from Lorenz-Mie calculation of OPC scattering (μg/m³),mass concentration of particles derived from Lorenz-Mie calculation of OPC scattering (μg/m³)
DateTimeUTC,F1_M11,P_M11,Q1_M11,Q2_M11,T1_M11,T2_M11,T3_M11,T4_M11,T5_M11,U1_M11,ZSPAN_M11,X2_M11,X0_M11,X1_M11
2023-06-23 22:00:00,SystemResetWarning,0826.2,5.00,000.00,032.0,025.6,000.0,040.1,031.5,34.6,0002.1,0010.39,0017.66,0009.63
2023-06-23 22:01:00,SystemResetWarning,0826.2,5.00,000.00,031.8,026.1,000.0,040.0,031.5,33.8,0002.2,0010.40,0017.63,0009.61
2023-06-23 22:02:00,SystemResetWarning,0826.1,5.00,000.00,031.8,026.6,000.0,040.0,031.6,33.6,0002.0,0010.39,0017.86,0009.57
2023-06-23 22:03:00,SystemResetWarning,0826.1,4.99,000.00,031.7,027.0,000.0,040.0,031.7,33.9,0002.2,0010.43,0018.02,0009.56
2023-06-23 22:04:00,SystemResetWarning,0826.0,5.00,000.00,031.7,027.4,000.0,040.0,031.8,34.3,0002.3,0010.45,0017.47,0009.54
2023-06-23 22:05:00,SystemResetWarning,0826.0,5.01,000.00,031.6,027.7,000.0,039.9,031.8,34.4,0002.1,0010.50,0016.99,0009.56
2023-06-23 22:06:00,SystemResetWarning,0826.0,4.98,000.00,031.6,027.9,000.0,039.9,031.8,35.1,0002.1,0010.56,0017.39,0009.59
2023-06-23 22:07:00,SystemResetWarning,0826.0,5.02,000.00,031.7,028.2,000.0,039.9,031.9,35.5,0002.0,0010.58,0017.70,0009.60
2023-06-23 22:08:00,SystemResetWarning,0826.2,4.97,000.00,031.9,027.5,000.0,039.9,032.2,34.8,0001.8,0010.60,0016.80,0009.60
2023-06-23 22:09:00,SystemResetWarning,0826.2,5.02,000.00,032.1,025.7,000.0,039.8,032.1,34.0,0001.8,0010.54,0016.68,0009.61
2023-06-23 22:10:00,SystemResetWarning,0826.2,5.01,000.00,032.2,024.9,000.0,039.7,032.1,33.3,0002.1,0010.57,0016.94,0009.62
2023-06-23 22:11:00,SystemResetWarning,0826.2,5.00,000.00,032.2,025.0,000.0,039.7,031.6,33.8,0002.1,0010.57,0017.04,0009.61
2023-06-23 22:12:00,SystemResetWarning,0826.2,5.00,000.00,032.0,025.4,000.0,039.8,031.4,33.8,0002.0,0010.53,0017.61,0009.55
2023-06-23 22:13:00,SystemResetWarning,0826.1,4.99,000.00,031.9,025.9,000.0,039.8,031.4,34.1,0002.1,0010.43,0017.38,0009.46
2023-06-23 22:14:00,SystemResetWarning,0826.0,5.01,000.00,031.9,026.4,000.0,039.8,031.5,34.5,0002.2,0010.34,0017.39,0009.39
2023-06-23 22:15:00,SystemResetWarning,0826.0,4.99,000.00,031.9,026.9,000.0,039.8,031.6,33.8,0002.1,0010.26,0017.61,0009.33
2023-06-23 22:16:00,SystemResetWarning,0826.0,4.99,000.00,031.9,027.3,000.0,039.9,031.7,33.6,0002.0,0010.14,0018.18,0009.25
2023-06-23 22:17:00,SystemResetWarning,0825.9,5.00,000.00,031.9,027.6,000.0,039.9,031.8,33.7,0002.2,0010.05,0019.19,0009.17
2023-06-23 22:18:00,SystemResetWarning,0826.0,4.99,000.00,031.9,027.9,000.0,039.9,031.8,34.9,0002.5,0010.00,0019.18,0009.08
2023-06-23 22:19:00,SystemResetWarning,0826.0,5.03,000.00,032.0,028.0,000.0,039.9,031.9,33.5,0002.7,0009.88,0018.99,0008.99
2023-06-23 22:20:00,SystemResetWarning,0826.0,4.98,000.00,032.1,027.0,000.0,039.9,032.0,34.0,0002.7,0009.80,0019.80,0008.86
2023-06-23 22:21:00,SystemResetWarning,0825.9,5.01,000.00,032.1,025.3,000.0,039.8,031.9,32.9,0002.5,0009.66,0019.94,0008.74
2023-06-23 22:22:00,SystemResetWarning,0825.9,5.00,000.00,032.1,024.9,000.0,039.8,031.9,33.4,0002.5,0009.56,0020.03,0008.64
2023-06-23 22:23:00,SystemResetWarning,0825.9,5.00,000.00,031.9,025.1,000.0,039.8,031.5,33.6,0002.5,0009.50,0019.53,0008.60
2023-06-23 22:24:00,SystemResetWarning,0825.9,5.00,000.00,031.8,025.6,000.0,039.8,031.4,34.0,0002.6,0009.52,0019.86,0008.60
2023-06-23 22:25:00,SystemResetWarning,0825.9,4.99,000.00,031.7,026.1,000.0,039.8,031.4,34.7,0002.8,0009.52,0020.68,0008.59
2023-06-23 22:26:00,SystemResetWarning,0825.9,5.00,000.00,031.7,026.6,000.0,039.8,031.6,33.9,0002.9,0009.50,0020.62,0008.58
2023-06-23 22:27:00,SystemResetWarning,0825.9,4.99,000.00,031.7,027.0,000.0,039.8,031.6,32.8,0003.1,0009.55,0019.91,0008.60
2023-06-23 22:28:00,SystemResetWarning,0825.9,5.01,000.00,031.7,027.4,000.0,039.8,031.7,31.4,0002.9,0009.57,0019.10,0008.61
2023-06-23 22:29:00,SystemResetWarning,0825.8,5.00,000.00,031.7,027.7,000.0,039.8,031.8,31.9,0002.7,0009.52,0018.68,0008.60
2023-06-23 22:30:00,SystemResetWarning,0825.9,4.99,000.00,031.7,028.0,000.0,039.8,031.8,33.5,0002.5,0009.53,0019.03,0008.61
2023-06-23 22:31:00,SystemResetWarning,0825.9,5.00,000.00,031.7,028.2,000.0,039.8,031.9,33.0,0002.6,0009.54,0018.58,0008.61
2023-06-23 22:32:00,SystemResetWarning,0825.9,5.00,000.00,031.7,027.5,000.0,039.8,032.0,33.2,0002.6,0009.51,0018.50,0008.61
2023-06-23 22:33:00,SystemResetWarning,0825.9,5.00,000.00,031.7,025.7,000.0,039.7,031.9,34.0,0002.4,0009.55,0018.26,0008.63
2023-06-23 22:34:00,SystemResetWarning,0825.9,5.00,000.00,031.7,025.0,000.0,039.6,031.9,33.7,0002.6,0009.58,0018.98,0008.65
2023-06-23 22:35:00,SystemResetWarning,0825.9,5.01,000.00,031.5,025.1,000.0,039.6,031.5,33.0,0002.6,0009.55,0018.93,0008.64
2023-06-23 22:36:00,SystemResetWarning,0825.9,5.01,000.00,031.3,025.6,000.0,039.6,031.3,33.2,0002.7,0009.55,0018.11,0008.64
2023-06-23 22:37:00,SystemResetWarning,0825.9,5.00,000.00,031.2,026.0,000.0,039.5,031.3,33.7,0002.4,0009.59,0017.96,0008.64
2023-06-23 22:38:00,SystemResetWarning,0825.9,5.00,000.00,031.2,026.5,000.0,039.5,031.4,33.9,0002.2,0009.55,0018.24,0008.62
2023-06-23 22:39:00,SystemResetWarning,0825.8,4.99,000.00,031.1,027.0,000.0,039.5,031.5,33.1,0002.1,0009.56,0018.40,0008.59
2023-06-23 22:40:00,SystemResetWarning,0825.8,4.99,000.00,031.1,027.4,000.0,039.5,031.5,32.7,0002.6,0009.62,0017.91,0008.60
2023-06-23 22:41:00,SystemResetWarning,0825.8,5.01,000.00,031.1,027.7,000.0,039.5,031.6,33.4,0002.7,0009.62,0018.41,0008.59
2023-06-23 22:42:00,SystemResetWarning,0825.8,5.01,000.00,031.1,027.9,000.0,039.5,031.7,33.2,0002.8,0009.64,0019.01,0008.61
2023-06-23 22:43:00,SystemResetWarning,0825.8,5.01,000.00,031.1,028.1,000.0,039.5,031.8,32.5,0002.7,0009.65,0018.33,0008.62
2023-06-23 22:44:00,SystemResetWarning,0825.8,4.98,000.00,031.1,027.0,000.0,039.4,031.8,31.8,0002.7,0009.62,0017.99,0008.62
2023-06-23 22:45:00,SystemResetWarning,0825.8,5.00,000.00,031.1,025.3,000.0,039.3,031.6,32.9,0002.7,0009.59,0017.18,0008.61
2023-06-23 22:46:00,SystemResetWarning,0825.8,5.01,000.00,031.0,024.9,000.0,039.2,031.6,33.4,0002.7,0009.58,0017.08,0008.59
2023-06-23 22:47:00,SystemResetWarning,0825.7,5.00,000.00,030.8,025.1,000.0,039.2,031.2,34.5,0002.8,0009.53,0017.14,0008.58
2023-06-23 22:48:00,SystemResetWarning,0825.8,5.02,000.00,030.8,025.6,000.0,039.2,031.2,33.9,0002.8,0009.49,0017.51,0008.55
2023-06-23 22:49:00,SystemResetWarning,0825.7,4.98,000.00,030.7,026.1,000.0,039.2,031.3,34.1,0002.9,0009.48,0017.45,0008.52
2023-06-23 22:50:00,SystemResetWarning,0825.8,5.02,000.00,030.8,026.6,000.0,039.1,031.4,34.4,0002.9,0009.42,0017.18,0008.49
2023-06-23 22:51:00,SystemResetWarning,0825.8,4.98,000.00,030.8,027.0,000.0,039.1,031.5,33.2,0002.6,0009.29,0016.73,0008.43
2023-06-23 22:52:00,SystemResetWarning,0825.8,5.00,000.00,030.9,027.4,000.0,039.1,031.5,33.6,0002.7,0009.26,0015.80,0008.40
2023-06-23 22:53:00,SystemResetWarning,0825.8,5.01,000.00,030.9,027.7,000.0,039.1,031.6,34.1,0002.6,0009.21,0015.14,0008.37
2023-06-23 22:54:00,SystemResetWarning,0825.8,4.98,000.00,031.0,028.0,000.0,039.2,031.7,34.5,0002.6,0009.19,0015.75,0008.34
2023-06-23 22:55:00,SystemResetWarning,0825.8,4.99,000.00,031.0,027.2,000.0,039.1,031.7,34.4,0002.5,0009.14,0016.20,0008.31
2023-06-23 22:56:00,SystemResetWarning,0825.8,5.00,000.00,031.0,025.5,000.0,039.1,031.6,34.8,0002.4,0009.12,0016.19,0008.27
2023-06-23 22:57:00,SystemResetWarning,0825.8,5.02,000.00,031.0,024.9,000.0,039.0,031.6,34.7,0002.3,0009.07,0016.22,0008.23
2023-06-23 22:58:00,SystemResetWarning,0825.7,4.97,000.00,031.0,025.1,000.0,039.0,031.4,35.6,0002.0,0009.04,0015.82,0008.22
2023-06-23 22:59:00,SystemResetWarning,0825.7,5.02,000.00,030.9,025.5,000.0,039.0,031.3,37.5,0001.9,0009.00,0015.25,0008.22
